FW4334 Weather Reports


Display with metric or nautical units.
time (UTC)temp
F
wind
direction
speed
MPH
gust
MPH
rain 1hr
in
rain 24hr
in
rain mn
in
humidity
%
barometer
mb
20260508030527 79 262 0.0 4.0 0.00 0.00 0.00 78 1013.2
20260508030027 79 286 0.0 4.0 0.00 0.00 0.00 78 1013.2
20260508025526 80 210 1.0 4.0 0.00 0.00 0.00 77 1013.1
20260508025027 80 292 1.0 4.0 0.00 0.00 0.00 77 1013.2
20260508024528 80 286 0.0 3.0 0.00 0.00 0.00 76 1013.0
20260508024029 80 286 1.0 3.0 0.00 0.00 0.00 76 1013.0
20260508023526 80 238 1.0 4.0 0.00 0.00 0.00 76 1013.0
20260508023026 80 284 0.0 4.0 0.00 0.00 0.00 75 1012.9
20260508022525 81 227 0.0 8.0 0.00 0.00 0.00 75 1013.0
20260508022025 81 279 0.0 3.0 0.00 0.00 0.00 74 1012.9
20260508021525 81 276 1.0 2.0 0.00 0.00 0.00 73 1013.0
20260508021027 81 272 0.0 3.0 0.00 0.00 0.00 73 1012.9
20260508020525 81 269 1.0 3.0 0.00 0.00 0.00 72 1012.9
20260508020025 82 217 0.0 3.0 0.00 0.00 0.00 71 1012.8
20260508015525 82 285 0.0 3.0 0.00 0.00 0.00 70 1012.8
20260508015025 82 265 0.0 3.0 0.00 0.00 0.00 69 1012.7
20260508014524 82 248 0.0 1.0 0.00 0.00 0.00 68 1012.7
20260508014024 82 248 0.0 2.0 0.00 0.00 0.00 68 1012.6
20260508013523 82 248 0.0 2.0 0.00 0.00 0.00 67 1012.5
20260508013023 82 217 0.0 0.0 0.00 0.00 0.00 67 1012.6
20260508012523 83 217 0.0 0.0 0.00 0.00 0.00 66 1012.4
20260508012023 83 235 0.0 2.0 0.00 0.00 0.00 66 1012.5
20260508011524 83 252 0.0 2.0 0.00 0.00 0.00 66 1012.6
20260508011022 83 235 0.0 2.0 0.00 0.00 0.00 65 1012.4
20260508010521 83 231 0.0 2.0 0.00 0.00 0.00 65 1012.1
20260508010024 83 257 0.0 2.0 0.00 0.00 0.00 64 1012.2
20260508005521 84 223 0.0 2.0 0.00 0.00 0.00 64 1012.0
20260508005023 84 227 0.0 3.0 0.00 0.00 0.00 63 1012.1
20260508004523 84 227 0.0 3.0 0.00 0.00 0.00 63 1012.1
20260508004023 84 204 1.0 4.0 0.00 0.00 0.00 62 1011.9
20260508003523 84 204 0.0 8.0 0.00 0.00 0.00 62 1011.9
20260508003020 85 218 2.0 8.0 0.00 0.00 0.00 61 1011.8
20260508002520 85 201 1.0 5.0 0.00 0.00 0.00 61 1011.9
20260508002020 85 236 1.0 5.0 0.00 0.00 0.00 61 1012.1
20260508001520 85 205 1.0 5.0 0.00 0.00 0.00 60 1012.1
20260508001019 85 225 1.0 5.0 0.00 0.00 0.00 59 1012.0
20260508000522 86 198 0.0 5.0 0.00 0.00 0.00 59 1011.9
20260508000019 86 214 2.0 5.0 0.00 0.00 0.00 58 1011.9
20260507235519 86 271 1.0 7.0 0.00 0.00 0.00 57 1012.1
20260507235019 86 244 1.0 6.0 0.00 0.00 0.00 56 1011.9
20260507234529 87 208 2.0 5.0 0.00 0.00 0.00 56 1011.9
20260507234018 87 269 1.0 4.0 0.00 0.00 0.00 55 1012.0
20260507233518 87 277 0.0 8.0 0.00 0.00 0.00 55 1012.0
20260507233021 87 261 2.0 8.0 0.00 0.00 0.00 54 1011.7
20260507232520 88 282 2.0 8.0 0.00 0.00 0.00 53 1011.7
20260507232016 88 269 2.0 8.0 0.00 0.00 0.00 53 1011.6
20260507231516 88 288 3.0 8.0 0.00 0.00 0.00 53 1011.5
20260507231016 88 206 3.0 7.0 0.00 0.00 0.00 55 1011.5
20260507230617 88 208 3.0 7.0 0.00 0.00 0.00 54 1011.5
20260507230018 88 320 2.0 7.0 0.00 0.00 0.00 54 1011.4
20260507225517 88 269 2.0 9.0 0.00 0.00 0.00 53 1011.4
20260507225016 89 252 1.0 9.0 0.00 0.00 0.00 53 1011.2
20260507224516 89 178 1.0 10.0 0.00 0.00 0.00 52 1011.2
20260507224016 89 188 3.0 10.0 0.00 0.00 0.00 52 1011.2
20260507223515 89 263 1.0 5.0 0.00 0.00 0.00 51 1011.1
20260507223015 89 246 2.0 6.0 0.00 0.00 0.00 52 1011.1
20260507222518 89 230 3.0 13.0 0.00 0.00 0.00 52 1011.0
20260507222015 89 240 2.0 7.0 0.00 0.00 0.00 51 1010.9
20260507221518 89 202 2.0 9.0 0.00 0.00 0.00 51 1011.0
20260507221014 89 284 3.0 9.0 0.00 0.00 0.00 51 1011.0
20260507220513 89 240 4.0 9.0 0.00 0.00 0.00 50 1011.0
20260507220014 89 267 2.0 15.0 0.00 0.00 0.00 50 1011.0
20260507215514 89 180 5.0 15.0 0.00 0.00 0.00 50 1011.0
20260507215012 89 202 3.0 9.0 0.00 0.00 0.00 51 1011.0
20260507214512 89 228 3.0 7.0 0.00 0.00 0.00 52 1011.2
20260507214011 89 191 2.0 10.0 0.00 0.00 0.00 54 1011.2
20260507213512 89 313 2.0 10.0 0.00 0.00 0.00 54 1011.2
20260507213017 89 273 2.0 7.0 0.00 0.00 0.00 54 1011.1
20260507212510 89 225 1.0 12.0 0.00 0.00 0.00 55 1011.2
20260507212011 88 253 4.0 12.0 0.00 0.00 0.00 53 1011.2
20260507211510 88 256 1.0 7.0 0.00 0.00 0.00 57 1011.3
20260507211009 88 268 3.0 7.0 0.00 0.00 0.00 57 1011.4
20260507210509 88 294 2.0 7.0 0.00 0.00 0.00 58 1011.6
20260507210008 88 306 2.0 8.0 0.00 0.00 0.00 58 1011.8
20260507205508 88 261 3.0 8.0 0.00 0.00 0.00 58 1011.9
20260507205007 88 239 2.0 8.0 0.00 0.00 0.00 58 1012.1
20260507204505 88 215 2.0 8.0 0.00 0.00 0.00 58 1012.3
20260507204004 88 283 1.0 8.0 0.00 0.00 0.00 59 1012.6
20260507203504 88 250 1.0 4.0 0.00 0.00 0.00 60 1012.8
20260507203004 87 288 2.0 8.0 0.00 0.00 0.00 60 1012.7
20260507202502 87 282 3.0 8.0 0.00 0.00 0.00 62 1013.0
20260507202001 86 290 2.0 9.0 0.00 0.00 0.00 64 1013.1
20260507201505 85 269 1.0 9.0 0.00 0.00 0.00 65 1013.2
20260507201001 85 279 2.0 7.0 0.00 0.00 0.00 65 1013.2
20260507200602 85 246 3.0 7.0 0.00 0.00 0.00 65 1013.2
20260507200106 85 180 1.0 6.0 0.00 0.00 0.00 67 1013.2
20260507195600 84 181 2.0 7.0 0.00 0.00 0.00 66 1013.3
20260507195100 84 207 1.0 7.0 0.00 0.00 0.00 67 1013.2
20260507194601 85 187 2.0 5.0 0.00 0.00 0.00 67 1013.2
20260507194059 85 271 0.0 7.0 0.00 0.00 0.00 66 1013.4
20260507193559 85 288 2.0 7.0 0.00 0.00 0.00 66 1013.8
20260507193059 85 325 0.0 3.0 0.00 0.00 0.00 66 1014.0
20260507192558 85 334 0.0 3.0 0.00 0.00 0.00 66 1014.0
20260507192058 85 290 1.0 7.0 0.00 0.00 0.00 65 1014.1
20260507191603 85 360 1.0 7.0 0.00 0.00 0.00 65 1014.3
20260507191058 85 26 1.0 7.0 0.00 0.00 0.00 64 1014.4
20260507190558 86 347 1.0 7.0 0.00 0.00 0.00 64 1014.3
20260507190107 86 360 2.0 7.0 0.00 0.00 0.00 63 1014.1
20260507185559 87 277 2.0 7.0 0.00 0.00 0.00 62 1014.2
20260507185058 87 302 1.0 7.0 0.00 0.00 0.00 61 1014.0
20260507184557 87 282 1.0 7.0 0.00 0.00 0.00 58 1014.2
20260507184057 88 256 2.0 4.0 0.00 0.00 0.00 58 1014.4
20260507183558 88 5 1.0 6.0 0.00 0.00 0.00 57 1014.3
20260507183115 88 269 1.0 6.0 0.00 0.00 0.00 57 1014.4
20260507182557 88 288 2.0 7.0 0.00 0.00 0.00 57 1014.4
20260507182057 88 311 1.0 4.0 0.00 0.00 0.00 57 1014.6
20260507181600 88 329 1.0 4.0 0.00 0.00 0.00 57 1014.5
20260507181056 88 288 1.0 4.0 0.00 0.00 0.00 56 1014.5
20260507180558 88 306 0.0 5.0 0.00 0.00 0.00 56 1014.5
20260507180059 88 280 2.0 5.0 0.00 0.00 0.00 54 1014.6
20260507175556 89 271 2.0 6.0 0.00 0.00 0.00 53 1014.7
20260507175056 89 269 1.0 8.0 0.00 0.00 0.00 54 1014.8
20260507174603 89 319 1.0 8.0 0.00 0.00 0.00 53 1014.8
20260507174056 89 360 0.0 7.0 0.00 0.00 0.00 52 1014.9
20260507173554 90 325 1.0 7.0 0.00 0.00 0.00 51 1014.9
20260507173103 90 34 0.0 6.0 0.00 0.00 0.00 51 1015.0
20260507172553 90 281 1.0 6.0 0.00 0.00 0.00 50 1014.9
20260507172053 90 297 1.0 3.0 0.00 0.00 0.00 50 1015.0
20260507171554 91 319 1.0 4.0 0.00 0.00 0.00 50 1014.9
20260507171053 91 261 2.0 4.0 0.00 0.00 0.00 49 1014.9
20260507170552 91 285 0.0 2.0 0.00 0.00 0.00 50 1014.8
20260507170053 91 36 0.0 3.0 0.00 0.00 0.00 50 1014.9
20260507165550 90 311 0.0 3.0 0.00 0.00 0.00 53 1014.9
20260507165050 90 269 0.0 3.0 0.00 0.00 0.00 53 1014.8
20260507164613 90 275 1.0 4.0 0.00 0.00 0.00 53 1014.8
20260507164049 91 277 1.0 3.0 0.00 0.00 0.00 53 1014.9
20260507163548 90 335 1.0 4.0 0.00 0.00 0.00 53 1014.8
20260507163053 90 286 1.0 4.0 0.00 0.00 0.00 54 1014.9
20260507162547 90 336 0.0 3.0 0.00 0.00 0.00 55 1014.8
20260507162047 90 327 1.0 5.0 0.00 0.00 0.00 56 1014.8
20260507161554 90 327 0.0 4.0 0.00 0.00 0.00 56 1014.9
20260507161049 90 271 1.0 4.0 0.00 0.00 0.00 57 1015.0
20260507160544 90 313 1.0 4.0 0.00 0.00 0.00 57 1015.1
20260507160043 90 13 1.0 4.0 0.00 0.00 0.00 53 1015.1
20260507155542 89 290 2.0 4.0 0.00 0.00 0.00 52 1015.2
20260507155042 89 300 1.0 4.0 0.00 0.00 0.00 54 1015.3
20260507154540 89 283 1.0 4.0 0.00 0.00 0.00 52 1015.3
20260507154039 88 271 1.0 6.0 0.00 0.00 0.00 53 1015.3
20260507153540 88 259 2.0 6.0 0.00 0.00 0.00 53 1015.2
20260507153041 87 272 1.0 8.0 0.00 0.00 0.00 55 1015.2
20260507152535 87 223 3.0 8.0 0.00 0.00 0.00 56 1015.1
20260507152034 86 294 0.0 4.0 0.00 0.00 0.00 59 1015.0
20260507151536 86 269 1.0 5.0 0.00 0.00 0.00 62 1014.9
20260507151031 85 183 1.0 5.0 0.00 0.00 0.00 63 1015.0
20260507150530 85 183 2.0 7.0 0.00 0.00 0.00 64 1014.9
20260507150035 85 191 2.0 7.0 0.00 0.00 0.00 64 1014.7
20260507145528 84 239 0.0 8.0 0.00 0.00 0.00 66 1014.6
20260507145027 84 205 2.0 5.0 0.00 0.00 0.00 66 1014.5
20260507144534 84 231 1.0 5.0 0.00 0.00 0.00 68 1014.4
20260507144023 83 219 1.0 5.0 0.00 0.00 0.00 70 1014.4
20260507143521 82 217 0.0 4.0 0.00 0.00 0.00 72 1014.4
20260507143025 82 209 1.0 5.0 0.00 0.00 0.00 72 1014.4
20260507142519 81 260 2.0 5.0 0.00 0.00 0.00 73 1014.6
20260507142018 81 316 0.0 3.0 0.00 0.00 0.00 73 1014.8
20260507141520 80 322 0.0 3.0 0.00 0.00 0.00 75 1014.7
20260507141015 80 180 0.0 3.0 0.00 0.00 0.00 76 1014.7
20260507140514 79 183 0.0 3.0 0.00 0.00 0.00 76 1014.7
20260507140018 79 168 0.0 5.0 0.00 0.00 0.00 77 1014.8
20260507135511 78 178 2.0 5.0 0.00 0.00 0.00 77 1014.7
20260507135010 78 190 0.0 4.0 0.00 0.00 0.00 78 1014.8
20260507134509 78 214 1.0 4.0 0.00 0.00 0.00 78 1015.1
20260507134007 77 290 1.0 3.0 0.00 0.00 0.00 79 1015.1
20260507133506 77 222 0.0 3.0 0.00 0.00 0.00 80 1015.0
20260507133006 76 183 0.0 3.0 0.00 0.00 0.00 81 1014.9
20260507132505 76 209 0.0 2.0 0.00 0.00 0.00 81 1014.9
20260507132006 75 209 0.0 2.0 0.00 0.00 0.00 82 1015.0
20260507131607 75 249 0.0 2.0 0.00 0.00 0.00 82 1015.0
20260507131103 74 205 0.0 6.0 0.00 0.00 0.00 83 1015.0
20260507130600 74 205 0.0 6.0 0.00 0.00 0.00 83 1015.0
20260507130100 73 360 0.0 6.0 0.00 0.00 0.00 84 1015.0
20260507125600 73 360 1.0 4.0 0.00 0.00 0.00 84 1015.0
20260507125059 72 360 1.0 4.0 0.00 0.00 0.00 85 1014.9
20260507124605 72 360 0.0 3.0 0.00 0.00 0.00 86 1014.8
20260507124058 72 360 0.0 6.0 0.00 0.00 0.00 86 1014.7
20260507123558 71 360 2.0 6.0 0.00 0.00 0.00 87 1014.7
20260507123059 71 360 2.0 6.0 0.00 0.00 0.00 88 1014.5
20260507122558 70 360 2.0 5.0 0.00 0.00 0.00 89 1014.6
20260507122058 70 360 0.0 5.0 0.00 0.00 0.00 89 1014.6
20260507121558 69 360 0.0 5.0 0.00 0.00 0.00 90 1014.6
20260507121058 69 360 1.0 5.0 0.00 0.00 0.00 90 1014.6
20260507120557 69 197 0.0 4.0 0.00 0.00 0.00 90 1014.7
20260507120057 68 360 0.0 0.0 0.00 0.00 0.00 90 1014.7
20260507115557 68 360 0.0 0.0 0.00 0.00 0.00 91 1014.7
20260507115059 68 360 0.0 0.0 0.00 0.00 0.00 91 1014.9
20260507114609 68 186 0.0 0.0 0.00 0.00 0.00 90 1014.8
20260507114056 68 186 0.0 0.0 0.00 0.00 0.00 91 1014.8
20260507113559 68 186 0.0 0.0 0.00 0.00 0.00 91 1014.7
20260507113126 67 186 0.0 0.0 0.00 0.00 0.00 91 1014.8
20260507112555 67 186 0.0 1.0 0.00 0.00 0.00 91 1014.8
20260507112055 67 186 0.0 1.0 0.00 0.00 0.00 91 1014.8
20260507111558 67 186 0.0 0.0 0.00 0.00 0.00 90 1014.6
20260507111054 67 186 0.0 0.0 0.00 0.00 0.00 90 1014.6
20260507110555 67 186 0.0 0.0 0.00 0.00 0.00 90 1014.7
20260507110055 67 186 0.0 0.0 0.00 0.00 0.00 90 1014.7
20260507105554 67 186 0.0 0.0 0.00 0.00 0.00 89 1014.6
20260507105054 67 186 0.0 0.0 0.00 0.00 0.00 89 1014.6
20260507104555 67 186 0.0 0.0 0.00 0.00 0.00 89 1014.6
20260507104053 67 186 0.0 0.0 0.00 0.00 0.00 89 1014.7
20260507103553 68 186 0.0 0.0 0.00 0.00 0.00 89 1014.7
20260507103055 68 186 0.0 0.0 0.00 0.00 0.00 89 1014.6
20260507102551 68 186 0.0 0.0 0.00 0.00 0.00 88 1014.6
20260507102051 68 186 0.0 0.0 0.00 0.00 0.00 88 1014.6
20260507101551 68 186 0.0 0.0 0.00 0.00 0.00 88 1014.4
20260507101049 68 186 0.0 0.0 0.00 0.00 0.00 88 1014.5
20260507100548 68 186 0.0 0.0 0.00 0.00 0.00 88 1014.6
20260507100050 69 186 0.0 0.0 0.00 0.00 0.00 88 1014.4
20260507095548 69 186 0.0 0.0 0.00 0.00 0.00 87 1014.5
20260507095049 69 186 0.0 0.0 0.00 0.00 0.00 87 1014.3
20260507094547 69 186 0.0 0.0 0.00 0.00 0.00 87 1014.3
20260507094049 69 186 0.0 1.0 0.00 0.00 0.00 87 1014.3
20260507093545 69 186 0.0 1.0 0.00 0.00 0.00 87 1014.3
20260507093045 69 186 0.0 0.0 0.00 0.00 0.00 87 1014.2
20260507092545 70 186 0.0 0.0 0.00 0.00 0.00 87 1014.2
20260507092042 70 186 0.0 1.0 0.00 0.00 0.00 87 1014.0
20260507091544 70 186 0.0 1.0 0.00 0.00 0.00 87 1014.0
20260507091042 70 186 0.0 3.0 0.00 0.00 0.00 87 1014.0
20260507090542 70 186 0.0 3.0 0.00 0.00 0.00 86 1013.8
20260507090042 70 198 0.0 0.0 0.00 0.00 0.00 86 1013.7
20260507085541 70 198 0.0 1.0 0.00 0.00 0.00 86 1013.6
20260507085043 70 198 0.0 3.0 0.00 0.00 0.00 86 1013.4
20260507084546 70 221 0.0 1.0 0.00 0.00 0.00 86 1013.3
20260507084040 70 212 0.0 5.0 0.00 0.00 0.00 86 1013.2
20260507083542 70 217 1.0 5.0 0.00 0.00 0.00 86 1013.3
20260507083040 70 191 0.0 1.0 0.00 0.00 0.00 86 1013.3
20260507082539 70 196 0.0 3.0 0.00 0.00 0.00 86 1013.3
20260507082038 70 196 1.0 3.0 0.00 0.00 0.00 86 1013.2
20260507081541 70 155 0.0 3.0 0.00 0.00 0.00 86 1013.2
20260507081038 70 173 0.0 2.0 0.00 0.00 0.00 86 1013.3
20260507080537 70 158 0.0 2.0 0.00 0.00 0.00 86 1013.4
20260507080042 70 208 0.0 0.0 0.00 0.00 0.00 86 1013.5
20260507075536 70 208 0.0 0.0 0.00 0.00 0.00 86 1013.6
20260507075039 70 206 0.0 0.0 0.00 0.00 0.00 85 1013.6
20260507074537 70 188 0.0 0.0 0.00 0.00 0.00 85 1013.6
20260507074039 70 188 0.0 0.0 0.00 0.00 0.00 85 1013.5
20260507073536 70 188 0.0 2.0 0.00 0.00 0.00 85 1013.6
20260507073034 70 188 0.0 2.0 0.00 0.00 0.00 85 1013.7
20260507072536 70 173 0.0 2.0 0.00 0.00 0.00 85 1013.9
20260507072036 70 159 0.0 2.0 0.00 0.00 0.00 86 1013.9
20260507071532 70 192 0.0 2.0 0.00 0.00 0.00 86 1013.9
20260507071035 70 196 0.0 0.0 0.00 0.00 0.00 86 1014.0
20260507070531 70 196 0.0 0.0 0.00 0.00 0.00 85 1014.1
20260507070030 70 196 0.0 0.0 0.00 0.00 0.00 85 1014.1
20260507065532 70 196 0.0 0.0 0.00 0.00 0.00 85 1014.2
20260507065031 70 195 0.0 0.0 0.00 0.00 0.00 85 1014.1
20260507064529 70 196 0.0 0.0 0.00 0.00 0.00 86 1014.1
20260507064028 70 196 0.0 0.0 0.00 0.00 0.00 85 1014.2
20260507063527 70 196 0.0 0.0 0.00 0.00 0.00 85 1014.3
20260507063028 70 196 0.0 0.0 0.00 0.00 0.00 85 1014.4
20260507062528 70 196 0.0 0.0 0.00 0.00 0.00 85 1014.4
20260507062026 70 196 0.0 0.0 0.00 0.00 0.00 85 1014.4
20260507061526 70 196 0.0 0.0 0.00 0.00 0.00 85 1014.6
20260507061024 71 196 0.0 0.0 0.00 0.00 0.00 85 1014.7
20260507060524 71 196 0.0 0.0 0.00 0.00 0.00 85 1014.8
20260507060024 71 196 0.0 0.0 0.00 0.00 0.00 85 1014.8
20260507055523 71 196 0.0 0.0 0.00 0.00 0.00 84 1014.8
20260507055022 71 196 0.0 0.0 0.00 0.00 0.00 84 1014.9
20260507054522 71 196 0.0 0.0 0.00 0.00 0.00 84 1014.8
20260507054021 71 196 0.0 0.0 0.00 0.00 0.00 84 1014.9
20260507053521 71 196 0.0 0.0 0.00 0.00 0.00 84 1015.0
20260507053021 72 195 0.0 0.0 0.00 0.00 0.00 84 1015.1
20260507052519 72 195 0.0 0.0 0.00 0.00 0.00 84 1015.1
20260507052019 72 195 0.0 0.0 0.00 0.00 0.00 84 1015.2
20260507051519 72 195 0.0 0.0 0.00 0.00 0.00 84 1015.2
20260507051022 72 195 0.0 0.0 0.00 0.00 0.00 84 1015.2
20260507050517 72 196 0.0 0.0 0.00 0.00 0.00 83 1015.1
20260507050025 72 196 0.0 0.0 0.00 0.00 0.00 83 1015.2
20260507045519 72 196 0.0 0.0 0.00 0.00 0.00 83 1015.0
20260507045016 72 196 0.0 0.0 0.00 0.00 0.00 83 1015.0
20260507044515 73 360 0.0 0.0 0.00 0.00 0.00 83 1015.0
20260507044014 73 360 0.0 0.0 0.00 0.00 0.00 83 1015.0
20260507043514 73 360 0.0 0.0 0.00 0.00 0.00 82 1015.1
20260507043022 73 360 0.0 0.0 0.00 0.00 0.00 81 1015.0
20260507042516 73 360 0.0 0.0 0.00 0.00 0.00 81 1015.2
20260507042010 74 360 0.0 0.0 0.00 0.00 0.00 81 1015.5
20260507041510 74 195 0.0 0.0 0.00 0.00 0.00 80 1015.8
20260507041009 74 195 0.0 0.0 0.00 0.00 0.00 80 1015.8
20260507040508 74 195 0.0 0.0 0.00 0.00 0.00 80 1015.7
20260507040007 74 195 0.0 0.0 0.00 0.00 0.00 79 1015.6
20260507035510 75 195 0.0 0.0 0.00 0.00 0.00 79 1015.6
20260507035008 75 360 0.0 0.0 0.00 0.00 0.00 79 1015.6
20260507034508 75 360 0.0 0.0 0.00 0.00 0.00 79 1015.5
20260507034005 75 360 0.0 0.0 0.00 0.00 0.00 79 1015.5
20260507033605 75 360 0.0 0.0 0.00 0.00 0.00 78 1015.4
20260507033005 75 360 0.0 3.0 0.00 0.00 0.00 78 1015.4
20260507032504 75 195 0.0 3.0 0.00 0.00 0.00 78 1015.4
20260507032005 75 170 0.0 0.0 0.00 0.00 0.00 79 1015.4
20260507031505 76 171 0.0 0.0 0.00 0.00 0.00 79 1015.5
20260507031005 76 173 0.0 0.0 0.00 0.00 0.00 79 1015.6